Temp
74 78 78 77 64 61 55 60 67 62 68 85 90 85 81 83 77 64 82 82 80 77 78 80 80 80 80 80 79 79 79 79 79 79 79 79 79 80 80 80 80 81 81 81 81 81 81 81 81
80 86 80 73 60 54 57 69 68 72 76 81 85 87 83 78 88 84 78 82 80 77 77 78 80 80 80 79 79 79 79 79 79 79 79 79 79 80 80 80 80 81 81 81 81 81 81 81 80
80 86 71 66 60 58 62 69 73 79 85 82 85 90 87 81 88 85 84 83 81 78 77 78 79 79 80 80 79 79 79 79 79 79 79 79 79 79 79 80 80 81 81 81 81 81 80 80 80
82 78 74 63 61 74 75 74 83 82 86 89 87 79 86 91 89 89 88 85 81 79 76 79 79 79 79 79 79 79 79 79 79 79 79 79 79 79 79 79 80 80 81 81 81 80 80 80 79
81 73 63 61 69 77 81 83 80 85 85 81 87 78 79 89 92 90 88 88 83 77 76 77 79 79 79 80 79 79 79 79 79 79 79 79 79 79 79 79 79 80 80 81 80 80 79 79 79
73 73 60 59 69 81 83 85 87 83 85 84 82 78 74 81 89 89 91 88 86 78 77 77 79 79 79 79 79 79 79 79 79 79 79 79 79 79 79 79 79 79 79 80 80 79 79 78 78
68 64 63 67 72 79 84 87 84 85 79 82 86 73 72 83 91 91 93 90 83 81 77 76 77 78 79 79 79 78 78 78 78 78 78 79 79 79 79 79 79 79 79 79 79 78 78 77 77
75 68 65 71 70 75 87 86 88 89 84 88 88 71 67 76 90 91 89 86 83 81 78 75 75 75 74 76 79 78 78 78 78 78 78 78 79 79 79 78 78 79 79 78 78 78 77 77 77
81 63 63 68 73 77 88 81 87 94 84 87 84 81 84 86 90 87 86 86 83 81 79 78 76 75 75 75 78 78 79 79 78 78 78 77 73 73 76 77 78 79 79 78 78 77 77 77 77
71 60 66 79 82 80 88 86 86 85 83 83 87 86 87 90 88 84 83 84 81 79 80 80 79 78 79 84 78 74 77 75 74 74 73 73 72 72 79 78 79 79 79 78 78 77 77 77 72
73 66 78 82 84 84 85 88 91 80 73 79 81 83 86 85 86 85 85 84 82 83 84 83 82 81 82 84 77 76 76 75 75 75 74 74 77 75 77 76 76 72 77 73 75 74 72 71 72
68 78 81 82 86 81 81 86 86 84 80 85 87 86 86 82 85 85 85 85 85 85 86 86 86 84 84 84 78 78 78 77 76 77 76 75 73 73 73 72 72 72 71 70 71 70 71 70 72
70 77 82 84 81 80 84 82 82 82 86 87 88 86 84 83 86 86 87 87 85 84 87 88 87 86 81 81 81 81 81 80 80 79 78 78 75 73 74 74 72 72 71 71 69 68 68 69 70
77 78 79 81 79 79 78 81 82 87 90 87 87 83 84 86 87 85 85 85 85 85 85 86 87 82 81 81 79 83 81 83 78 81 79 77 75 73 73 73 71 71 70 68 68 67 67 67 67
80 72 77 79 79 78 81 76 78 87 90 89 85 85 87 89 89 85 86 83 84 85 82 84 81 81 79 79 79 77 78 79 77 76 77 77 75 74 72 71 71 69 69 69 68 67 67 64 66
71 69 60 75 81 82 77 65 81 86 84 86 90 90 89 88 88 87 86 83 84 84 81 83 90 82 78 77 77 78 77 77 77 77 75 77 76 74 72 71 69 68 68 67 66 64 63 62 61
63 59 64 72 83 80 75 68 82 87 85 85 87 87 87 88 86 87 88 87 85 84 79 80 81 80 77 77 76 76 78 76 77 75 75 76 77 75 72 69 67 67 66 65 64 62 61 59 60
59 61 65 67 76 75 71 72 78 84 84 83 83 84 85 86 87 89 86 88 86 86 83 81 78 79 79 77 75 76 75 75 76 75 74 75 74 74 71 67 66 66 64 63 62 62 61 59 58
71 68 66 72 80 73 67 68 76 81 78 79 80 83 82 84 90 89 86 87 84 83 82 82 79 76 78 76 76 73 75 73 74 72 73 73 73 72 69 67 65 65 63 62 63 61 59 57 58
72 67 65 72 79 74 71 70 75 78 78 79 81 81 81 82 85 85 84 82 83 81 82 81 82 77 79 79 75 75 74 73 73 72 72 72 72 71 69 66 65 64 62 61 60 58 56 55 55
68 65 67 67 74 73 70 65 70 78 80 82 82 83 83 84 79 82 83 81 78 79 80 81 80 78 79 77 77 74 73 72 68 67 67 69 71 70 68 67 65 63 61 58 57 56 55 51 53
61 75 75 72 64 54 68 55 68 71 75 81 80 80 82 82 79 81 78 76 77 77 78 78 77 76 78 77 76 74 70 67 67 66 66 68 70 69 70 68 64 61 59 57 56 58 54 52 50
68 77 72 71 62 59 62 54 65 74 73 76 77 80 79 82 80 79 79 79 79 80 78 77 76 76 76 75 75 73 70 69 69 66 65 65 66 68 70 65 62 60 58 56 56 55 54 52 51
79 72 68 64 58 48 61 56 63 67 71 77 79 82 85 82 82 81 80 79 78 80 77 75 74 73 74 74 74 72 70 68 68 66 64 63 64 64 65 65 61 59 58 56 56 55 55 52 51
69 58 46 45 46 49 63 58 65 72 78 79 79 78 81 84 80 81 79 79 78 77 75 74 73 72 74 74 73 72 71 70 67 66 64 63 61 60 60 61 61 59 57 57 56 54 54 53 52
63 59 48 41 44 52 64 56 65 78 81 81 81 81 82 79 77 78 78 78 78 76 75 73 70 70 73 73 73 72 69 69 66 66 65 63 60 59 60 61 60 59 59 58 56 54 54 53 52
64 57 65 54 54 49 54 63 74 75 79 78 81 80 75 77 76 80 77 76 76 76 73 71 71 72 71 70 70 70 72 70 66 64 62 60 59 62 61 61 59 59 59 57 55 54 54 53 53
68 70 55 51 42 41 52 56 57 65 69 74 75 79 79 75 74 75 75 75 75 74 71 71 72 71 69 70 70 70 69 66 63 62 61 60 60 61 61 59 59 59 58 57 55 54 54 53 53
63 59 59 56 53 45 44 50 63 71 73 74 77 82 78 76 75 75 73 74 75 73 71 70 70 70 67 70 70 69 66 63 62 61 60 60 61 60 60 60 59 58 57 57 55 54 55 55 54
69 64 61 49 51 51 50 50 70 71 71 70 68 75 77 74 76 75 75 75 73 73 71 69 69 69 70 71 69 67 64 62 60 60 61 61 59 59 61 61 60 59 59 57 55 55 57 55 55
MSLP
1010.80 1010.89 1011.56 1011.65 1012.41 1012.87 1014.05 1014.57 1014.60 1014.19 1010.88 1006.78 1005.30 1005.77 1006.60 1007.02 1007.52 1009.60 1010.25 1010.40 1011.48 1012.54 1013.01 1013.04 1013.48 1014.01 1014.50 1014.96 1015.36 1015.70 1016.09 1016.44 1016.59 1016.82 1017.03 1017.20 1017.37 1017.60 1017.72 1017.77 1017.86 1018.01 1018.11 1018.15 1018.17 1018.13 1018.05 1017.99 1017.94
1010.42 1010.58 1011.10 1011.10 1011.74 1012.60 1012.80 1012.55 1011.28 1009.77 1008.38 1006.68 1006.05 1006.07 1006.50 1007.62 1007.71 1009.14 1010.36 1011.08 1011.52 1012.35 1013.05 1013.23 1013.57 1014.03 1014.57 1015.06 1015.35 1015.75 1016.11 1016.44 1016.70 1016.92 1017.16 1017.32 1017.57 1017.73 1017.79 1017.85 1017.97 1018.08 1018.13 1018.17 1018.21 1018.15 1018.10 1018.03 1018.01
1010.36 1010.35 1010.91 1010.56 1011.02 1010.68 1010.42 1010.01 1008.51 1008.51 1006.79 1007.11 1005.89 1005.54 1006.46 1007.69 1008.06 1008.72 1009.85 1011.05 1011.53 1012.30 1012.93 1013.39 1013.69 1014.10 1014.56 1014.96 1015.38 1015.91 1016.28 1016.59 1016.87 1017.02 1017.20 1017.40 1017.66 1017.85 1017.91 1018.03 1018.10 1018.14 1018.20 1018.22 1018.29 1018.29 1018.20 1018.18 1018.21
1009.94 1010.25 1010.14 1009.94 1009.81 1008.20 1007.69 1007.24 1006.98 1007.00 1006.34 1005.62 1005.48 1007.21 1007.81 1007.62 1007.70 1008.60 1010.18 1011.01 1011.59 1012.40 1013.05 1013.46 1013.88 1014.31 1014.61 1015.08 1015.57 1015.97 1016.25 1016.60 1016.94 1017.07 1017.28 1017.53 1017.76 1017.89 1018.04 1018.07 1018.11 1018.15 1018.19 1018.17 1018.20 1018.14 1018.15 1018.15 1018.10
1009.78 1010.20 1010.20 1009.58 1008.20 1006.63 1006.04 1005.23 1005.62 1005.47 1005.58 1006.26 1006.48 1008.09 1008.48 1008.40 1008.28 1009.03 1009.86 1010.51 1011.46 1012.94 1013.36 1013.85 1014.18 1014.50 1014.85 1015.17 1015.58 1015.91 1016.25 1016.61 1017.00 1017.23 1017.44 1017.53 1017.75 1017.89 1017.90 1017.97 1018.09 1018.14 1018.17 1018.15 1018.09 1018.08 1018.09 1018.03 1017.96
1010.41 1010.05 1010.31 1009.62 1007.84 1006.06 1005.16 1004.04 1004.06 1004.87 1005.37 1006.03 1007.09 1008.42 1009.08 1008.79 1008.84 1009.11 1009.59 1010.29 1010.96 1012.37 1013.36 1013.98 1014.36 1014.64 1014.94 1015.19 1015.59 1015.96 1016.30 1016.65 1016.87 1017.10 1017.21 1017.40 1017.57 1017.74 1017.81 1017.86 1017.96 1017.98 1018.05 1018.05 1018.06 1018.06 1018.10 1018.01 1017.88
1010.40 1010.53 1010.27 1009.27 1007.73 1005.94 1004.80 1003.61 1003.77 1004.18 1005.18 1005.39 1006.80 1008.55 1009.33 1009.00 1008.25 1008.66 1009.30 1010.19 1011.02 1011.99 1012.79 1013.68 1014.35 1014.70 1014.99 1015.22 1015.58 1015.92 1016.24 1016.54 1016.78 1016.99 1017.14 1017.25 1017.46 1017.61 1017.62 1017.68 1017.82 1017.93 1017.97 1017.95 1017.96 1017.94 1017.88 1017.74 1017.58
1009.80 1010.35 1010.10 1008.82 1007.82 1006.12 1003.99 1003.64 1003.38 1003.88 1005.95 1006.08 1007.16 1009.12 1009.92 1009.53 1008.65 1008.62 1009.63 1010.63 1011.27 1012.18 1012.71 1013.43 1014.16 1014.69 1015.09 1015.30 1015.58 1015.85 1016.06 1016.33 1016.68 1016.78 1016.89 1017.11 1017.22 1017.30 1017.38 1017.58 1017.74 1017.72 1017.71 1017.64 1017.65 1017.65 1017.64 1017.48 1017.39
1009.32 1010.22 1009.81 1008.42 1007.28 1005.96 1004.03 1003.92 1003.22 1003.46 1004.71 1005.37 1006.50 1008.27 1009.16 1009.49 1008.95 1009.08 1009.95 1010.89 1011.60 1012.27 1012.63 1013.06 1013.57 1014.35 1014.88 1015.22 1015.49 1015.67 1015.91 1016.22 1016.48 1016.61 1016.82 1016.78 1016.96 1017.06 1017.28 1017.23 1017.27 1017.29 1017.34 1017.32 1017.22 1017.25 1017.15 1017.19 1017.25
1009.46 1009.75 1008.90 1007.41 1006.43 1006.02 1004.37 1003.81 1003.26 1004.13 1004.55 1005.27 1005.85 1006.29 1006.41 1008.51 1009.02 1009.23 1009.39 1010.71 1011.55 1012.08 1012.46 1012.54 1013.12 1013.61 1014.22 1014.41 1014.95 1015.36 1015.59 1015.85 1016.20 1016.31 1016.47 1016.42 1016.49 1016.68 1016.62 1016.66 1016.68 1016.70 1016.94 1016.98 1017.05 1017.13 1017.04 1017.28 1017.30
1008.76 1009.05 1007.87 1006.56 1005.86 1005.15 1004.88 1003.84 1003.20 1004.34 1005.07 1005.13 1005.46 1006.75 1007.50 1008.03 1008.52 1009.01 1009.15 1009.55 1010.66 1011.00 1011.54 1012.07 1012.52 1012.83 1013.14 1013.53 1014.40 1015.00 1015.28 1015.50 1015.65 1015.78 1015.97 1015.86 1016.01 1016.33 1016.06 1016.36 1016.50 1016.77 1016.66 1016.87 1016.95 1016.87 1017.21 1017.29 1017.31
1008.55 1007.70 1007.19 1006.10 1005.23 1005.06 1004.76 1004.20 1003.91 1003.76 1004.50 1004.53 1004.68 1005.92 1007.08 1007.87 1008.13 1008.58 1008.67 1009.00 1009.28 1010.29 1010.71 1011.39 1011.89 1012.19 1012.40 1012.76 1013.64 1014.03 1014.49 1014.74 1015.01 1015.02 1015.27 1015.50 1015.76 1015.95 1016.03 1016.30 1016.36 1016.44 1016.67 1017.01 1016.92 1017.22 1017.23 1017.21 1017.02
1007.88 1007.07 1006.34 1005.51 1005.17 1004.91 1004.42 1004.24 1003.99 1003.98 1004.08 1004.64 1004.96 1005.64 1006.56 1007.13 1007.40 1007.75 1007.84 1008.12 1008.65 1009.17 1010.04 1010.64 1011.18 1011.51 1012.02 1012.49 1012.89 1013.27 1013.51 1013.80 1013.95 1014.33 1014.56 1014.87 1015.09 1015.45 1015.39 1015.73 1015.92 1016.25 1016.31 1016.64 1016.96 1017.17 1016.99 1016.65 1016.57
1007.26 1006.75 1006.24 1005.61 1005.15 1004.74 1004.66 1004.34 1004.01 1003.59 1003.45 1004.50 1004.98 1005.33 1005.60 1006.25 1006.42 1006.95 1007.39 1007.91 1008.21 1008.57 1009.11 1009.73 1010.46 1010.82 1011.26 1011.85 1012.43 1012.75 1012.73 1012.97 1013.35 1013.60 1013.79 1014.02 1014.45 1014.94 1015.18 1015.43 1015.74 1015.99 1016.26 1016.45 1016.52 1016.72 1016.74 1016.93 1016.94
1007.63 1007.24 1006.39 1005.65 1004.96 1004.75 1004.37 1004.53 1004.11 1003.27 1002.96 1003.81 1004.41 1004.89 1005.07 1005.18 1005.62 1006.26 1006.72 1007.29 1007.67 1008.19 1008.76 1009.30 1009.82 1010.11 1010.58 1011.28 1011.85 1012.13 1012.18 1012.51 1012.96 1013.11 1013.37 1013.70 1014.13 1014.61 1015.07 1015.47 1015.70 1015.85 1016.01 1016.15 1016.38 1016.68 1016.89 1017.27 1017.06
1008.18 1007.32 1006.99 1005.05 1004.58 1004.15 1004.48 1004.39 1003.77 1003.09 1002.98 1003.21 1003.42 1003.72 1004.00 1004.52 1004.75 1005.36 1005.91 1006.63 1007.18 1007.86 1008.44 1008.88 1009.32 1009.91 1010.38 1011.05 1011.57 1011.94 1011.98 1012.27 1012.57 1012.79 1013.21 1013.58 1013.94 1014.39 1014.89 1015.45 1015.83 1015.84 1016.05 1016.25 1016.61 1016.97 1017.16 1017.30 1017.30
1008.43 1008.01 1007.11 1005.45 1003.75 1003.72 1004.19 1004.32 1003.38 1002.78 1002.74 1002.85 1002.96 1003.03 1003.35 1004.03 1004.60 1004.69 1005.27 1005.76 1006.56 1007.27 1008.09 1008.88 1009.26 1009.94 1010.36 1010.92 1011.44 1011.84 1011.84 1012.18 1012.40 1012.68 1013.11 1013.43 1013.82 1014.29 1014.79 1015.37 1015.89 1016.00 1016.17 1016.36 1016.67 1016.97 1017.20 1017.31 1017.15
1008.62 1008.01 1006.63 1005.42 1004.17 1003.17 1003.75 1003.76 1003.22 1002.66 1002.57 1002.47 1002.63 1002.44 1002.86 1003.48 1003.76 1004.01 1004.68 1005.48 1006.09 1006.55 1007.29 1008.16 1009.06 1009.69 1010.24 1010.78 1011.26 1011.62 1011.97 1012.23 1012.19 1012.45 1012.88 1013.24 1013.78 1014.22 1014.77 1015.54 1016.00 1016.04 1016.32 1016.58 1016.81 1017.02 1017.07 1017.12 1017.15
1007.61 1007.15 1006.46 1005.25 1004.31 1004.28 1004.23 1004.01 1003.47 1002.78 1002.54 1002.54 1002.41 1002.52 1002.14 1002.53 1002.59 1003.26 1004.01 1004.83 1005.73 1006.63 1007.16 1007.61 1008.58 1009.44 1010.17 1010.78 1011.22 1011.73 1012.01 1012.22 1012.26 1012.60 1012.91 1013.32 1013.68 1014.28 1014.81 1015.44 1015.86 1015.95 1016.34 1016.63 1016.76 1016.83 1017.01 1017.05 1016.98
1006.90 1006.79 1006.46 1005.66 1004.86 1004.77 1004.47 1004.20 1003.55 1003.20 1002.82 1002.42 1002.18 1002.10 1001.90 1001.98 1002.60 1003.21 1003.94 1004.60 1005.22 1005.99 1006.82 1007.35 1007.77 1008.66 1009.38 1010.20 1010.83 1011.26 1011.66 1011.96 1012.28 1012.66 1012.82 1013.17 1013.67 1014.28 1014.81 1015.38 1015.93 1016.17 1016.45 1016.70 1016.76 1016.82 1017.14 1017.23 1017.07
1006.68 1006.71 1006.71 1006.57 1005.69 1005.22 1005.26 1005.15 1004.36 1003.00 1002.46 1002.01 1001.49 1001.15 1001.26 1001.44 1002.21 1003.21 1004.00 1004.63 1005.51 1006.06 1006.62 1007.26 1007.58 1008.05 1008.77 1009.52 1010.42 1011.00 1011.57 1012.21 1012.84 1013.19 1013.55 1013.70 1013.69 1014.32 1014.82 1015.17 1015.55 1016.08 1016.36 1016.71 1016.83 1016.87 1017.12 1017.51 1017.32
1006.67 1006.61 1006.73 1006.92 1007.07 1007.00 1006.40 1006.21 1004.81 1003.11 1002.26 1001.33 1001.05 1001.07 1000.82 1001.12 1001.73 1002.81 1004.13 1004.93 1005.60 1006.06 1006.66 1007.30 1007.64 1008.13 1008.63 1009.18 1009.97 1010.63 1011.23 1012.22 1012.71 1013.00 1013.27 1013.60 1013.77 1014.31 1014.54 1014.92 1015.46 1015.83 1016.19 1016.52 1016.80 1016.95 1017.05 1017.38 1017.88
1006.29 1006.43 1006.91 1007.26 1007.71 1007.75 1007.09 1007.24 1004.45 1003.34 1002.41 1001.03 1000.73 1000.48 1000.83 1001.10 1002.25 1003.26 1003.76 1004.54 1005.45 1006.11 1006.87 1007.46 1007.92 1008.34 1008.72 1009.13 1009.63 1010.32 1010.93 1011.81 1012.40 1013.00 1013.46 1013.80 1013.99 1014.14 1014.55 1015.13 1015.52 1016.02 1016.39 1016.71 1016.68 1016.77 1017.13 1017.35 1017.76
1005.96 1006.64 1007.49 1008.04 1008.71 1009.11 1007.32 1007.70 1004.99 1003.60 1002.26 1001.51 1001.17 1001.11 1001.38 1001.95 1002.74 1003.47 1004.13 1005.06 1005.91 1006.41 1007.17 1007.84 1008.34 1008.77 1008.90 1009.17 1009.65 1010.19 1010.94 1011.69 1012.40 1012.88 1013.37 1013.87 1014.12 1014.53 1014.69 1015.00 1015.40 1015.85 1016.28 1016.53 1016.71 1016.87 1017.01 1017.30 1017.45
1006.37 1007.39 1008.81 1009.69 1010.04 1009.24 1007.86 1007.02 1004.64 1002.27 1001.75 1000.87 1000.98 1001.25 1001.35 1002.05 1002.85 1003.55 1004.39 1005.16 1005.66 1006.30 1006.89 1007.38 1007.94 1008.66 1009.05 1009.45 1009.86 1010.28 1010.66 1011.42 1012.11 1012.69 1013.19 1013.89 1014.40 1014.72 1014.88 1015.21 1015.63 1016.02 1016.31 1016.34 1016.45 1016.75 1016.87 1016.96 1017.14
1006.51 1007.73 1009.04 1009.87 1010.33 1009.27 1007.84 1006.39 1004.29 1002.40 1001.68 1001.16 1001.11 1001.01 1001.41 1001.91 1002.71 1003.57 1004.29 1004.78 1005.16 1005.85 1006.52 1007.12 1007.98 1008.83 1009.39 1009.97 1010.20 1010.46 1010.85 1011.42 1012.28 1012.67 1013.15 1013.57 1014.04 1014.32 1014.84 1015.25 1015.53 1015.82 1015.97 1016.07 1016.23 1016.46 1016.54 1016.58 1016.63
1006.45 1007.44 1008.14 1009.39 1009.85 1009.71 1008.44 1006.51 1004.61 1003.91 1002.94 1002.71 1002.11 1001.91 1002.02 1002.06 1002.49 1003.33 1004.00 1004.63 1005.25 1005.90 1006.60 1007.38 1008.17 1008.88 1009.74 1010.46 1010.71 1010.98 1011.19 1011.79 1012.49 1012.86 1013.22 1013.75 1014.19 1014.63 1015.08 1015.28 1015.59 1015.78 1015.75 1015.94 1016.08 1016.17 1016.21 1016.14 1016.02
1006.14 1006.92 1008.23 1009.44 1010.50 1010.43 1009.06 1007.71 1006.49 1005.16 1004.59 1003.43 1003.09 1003.21 1002.94 1002.81 1003.15 1003.81 1004.40 1004.70 1005.29 1005.87 1006.77 1007.38 1008.03 1008.57 1009.60 1010.43 1011.05 1011.40 1011.68 1012.17 1012.70 1013.04 1013.62 1014.09 1014.47 1014.71 1015.01 1015.24 1015.47 1015.55 1015.56 1015.61 1015.64 1015.70 1015.65 1015.64 1015.39
1006.72 1007.25 1008.15 1009.40 1010.11 1010.38 1009.69 1008.20 1006.30 1005.38 1005.13 1004.52 1003.91 1004.66 1003.86 1003.72 1003.70 1003.88 1004.55 1005.03 1005.55 1006.31 1007.15 1007.78 1008.39 1008.81 1009.82 1010.32 1011.09 1011.65 1012.32 1012.76 1013.12 1013.50 1013.85 1014.24 1014.48 1014.76 1015.03 1015.19 1015.17 1015.19 1015.17 1015.12 1015.21 1015.21 1015.22 1015.21 1015.04
1007.05 1007.35 1007.80 1009.39 1009.84 1009.68 1009.13 1008.00 1006.34 1005.79 1005.74 1006.05 1006.09 1005.63 1004.52 1003.89 1003.53 1004.12 1004.67 1004.92 1005.55 1006.34 1007.20 1007.89 1008.52 1009.03 1009.56 1010.12 1011.19 1011.99 1012.57 1013.04 1013.45 1013.80 1014.05 1014.27 1014.62 1014.77 1014.97 1015.09 1014.94 1014.88 1014.91 1014.83 1014.89 1014.96 1014.82 1014.79 1014.67
Wind_Speed
2 6 3 2 4 7 4 5 8 11 13 8 10 12 15 7 5 6 11 20 22 17 14 17 21 19 18 17 15 14 13 11 11 11 11 10 9 9 8 8 9 9 9 9 8 7 7 6 6
2 4 3 4 5 3 5 9 22 26 20 20 7 15 16 9 9 15 11 19 20 17 12 14 20 18 17 16 15 14 13 12 11 11 10 10 8 8 8 8 8 8 8 7 5 5 5 4 4
3 5 2 4 4 6 6 11 13 5 19 21 5 6 6 5 12 8 22 21 19 16 13 14 19 19 17 17 15 14 12 11 10 11 10 8 7 6 7 7 6 6 6 5 4 3 3 2 3
4 3 5 2 10 17 8 8 16 9 12 15 11 9 9 8 5 14 23 21 18 15 12 16 18 17 17 16 14 13 13 11 10 10 9 8 7 7 6 6 6 5 5 5 4 2 1 2 2
2 1 4 6 16 6 6 13 13 10 6 16 19 13 9 11 10 23 24 21 20 14 12 12 16 16 15 16 15 13 12 11 9 8 8 8 7 7 7 7 6 5 5 4 4 3 3 3 3
4 2 5 7 12 13 6 2 5 14 11 14 22 11 2 5 6 11 20 20 21 18 15 11 15 15 15 15 14 12 11 10 9 9 8 8 8 7 7 7 7 6 6 4 4 4 4 4 5
4 2 8 13 15 13 8 6 5 7 8 2 15 7 4 2 9 7 13 20 19 17 17 13 10 12 14 14 13 12 11 10 9 8 8 8 8 8 8 8 8 7 6 6 5 5 6 7 8
3 1 10 13 9 15 8 5 5 5 17 19 5 4 4 7 8 7 16 19 18 17 16 14 11 8 6 7 13 12 12 11 10 9 9 8 9 10 10 9 9 9 9 8 8 8 8 10 10
7 3 8 14 13 7 19 7 1 8 11 13 12 12 5 8 8 7 14 16 15 14 14 14 13 10 8 7 9 12 14 12 11 9 10 9 5 6 8 10 12 13 12 11 11 10 12 11 10
4 2 10 14 15 10 11 6 3 5 5 4 11 20 21 12 7 9 7 17 16 15 16 15 14 15 13 11 11 8 8 6 6 6 7 6 7 6 10 12 17 17 13 13 11 11 13 8 4
9 8 15 20 13 10 6 11 6 8 3 6 9 12 14 7 9 11 9 9 21 19 14 17 16 15 16 12 8 6 5 6 7 10 9 8 5 5 5 5 5 4 11 3 6 7 2 4 4
6 13 14 14 12 8 9 8 8 5 10 12 12 11 8 7 10 11 11 10 10 19 19 18 18 16 15 8 9 10 8 8 7 9 10 7 4 5 4 4 5 5 1 3 4 2 1 1 4
6 9 10 12 9 8 9 7 7 8 9 9 9 12 12 10 11 10 12 11 10 9 19 18 18 15 9 12 9 10 10 9 10 9 8 8 5 4 3 4 4 4 2 3 4 3 1 4 6
8 10 9 8 8 7 6 8 6 12 8 16 13 14 16 15 14 9 10 10 12 11 13 16 18 11 10 10 9 9 8 10 6 9 9 8 5 4 2 2 4 4 4 3 3 2 4 4 4
12 10 10 12 10 10 7 10 8 12 7 12 21 17 17 17 14 11 11 10 13 12 10 16 12 9 9 8 6 5 5 5 5 5 7 7 6 4 5 4 3 4 3 5 4 4 3 4 5
8 7 4 15 13 12 7 11 14 11 4 11 11 14 18 17 17 13 11 11 13 14 11 13 13 11 9 8 6 4 3 4 4 4 5 7 7 6 4 3 3 3 3 3 2 1 3 2 3
5 9 10 15 19 7 9 9 15 11 8 10 9 11 12 16 12 14 14 17 17 14 12 10 10 11 8 7 5 5 5 3 4 4 5 7 7 7 6 4 4 3 2 2 1 1 1 1 4
9 7 8 7 10 4 8 10 7 9 7 8 9 9 12 17 19 18 17 17 16 17 15 11 8 10 10 7 5 4 4 4 4 4 5 7 6 7 6 5 4 3 2 2 1 2 1 2 1
9 9 8 8 14 7 4 3 7 9 8 8 9 7 8 15 19 19 17 18 16 15 15 16 12 10 8 4 6 4 5 3 2 5 8 8 6 7 6 4 3 3 1 2 3 2 1 2 3
10 5 8 10 12 9 11 7 7 9 10 9 9 10 9 8 14 16 16 16 18 17 16 14 14 14 12 8 4 3 4 3 4 5 6 7 7 7 6 5 3 2 1 2 2 3 1 1 2
8 6 7 9 12 9 8 9 11 13 9 10 10 10 8 8 11 15 16 14 11 12 14 14 12 11 12 11 6 2 3 5 4 2 4 3 7 7 7 5 3 3 3 2 1 1 3 0 3
4 11 9 8 5 3 5 11 17 11 12 14 11 10 10 8 8 13 10 8 9 7 8 8 8 8 8 8 7 6 4 4 3 3 1 4 7 6 6 4 5 5 3 3 1 2 1 2 1
7 7 7 5 7 8 9 4 13 15 16 10 9 6 6 13 13 12 14 13 9 9 8 7 8 8 6 7 6 6 5 4 5 3 6 6 5 5 2 6 6 5 2 1 1 2 3 1 1
6 4 7 7 3 5 13 6 15 11 7 9 7 8 9 9 12 11 9 10 8 8 8 7 8 5 7 6 5 8 8 7 7 6 6 4 4 4 5 6 5 4 2 1 1 1 2 1 2
5 3 4 5 3 10 7 4 17 12 4 5 8 7 6 11 13 13 13 11 10 9 10 9 10 7 6 6 6 6 6 8 10 9 5 6 4 3 5 5 4 2 3 3 2 2 2 4 3
3 7 6 4 4 8 6 6 8 9 4 8 7 9 9 7 9 11 12 12 11 10 11 10 9 8 8 4 3 5 7 6 5 5 4 4 4 5 6 5 5 4 4 4 4 3 4 5 5
5 4 8 1 5 5 5 11 7 13 18 13 16 12 3 3 10 18 11 9 9 9 9 13 12 11 8 6 6 5 6 6 6 6 7 5 6 5 6 6 5 5 5 5 5 4 5 5 6
7 5 5 4 2 6 6 3 3 10 9 11 14 17 13 6 9 9 8 9 7 7 12 11 12 14 10 8 5 4 6 6 6 6 6 5 6 5 5 4 5 6 6 6 6 5 6 5 5
5 3 3 4 4 4 3 7 7 6 7 8 4 12 6 2 8 9 7 6 7 9 11 10 10 12 8 9 6 6 6 7 6 5 5 5 4 4 3 5 6 7 7 7 6 6 7 7 7
8 6 6 6 7 4 5 8 5 4 9 13 11 14 11 5 5 10 10 9 9 11 12 9 9 10 10 10 6 7 7 7 6 4 4 5 4 2 5 6 6 5 5 5 5 5 5 7 7
Wind_Direction
200 210 176 350 60 92 167 180 126 207 289 297 59 78 85 58 54 147 110 112 122 127 134 125 131 136 135 135 129 126 122 121 116 115 113 109 107 106 104 100 99 99 101 100 96 88 76 60 40
283 271 172 268 104 121 242 151 172 212 223 264 78 93 78 78 94 120 100 130 128 131 130 131 137 136 136 135 133 130 130 128 128 123 119 116 119 120 117 109 111 115 113 110 106 100 85 63 35
234 203 106 164 156 209 225 200 201 178 267 281 127 103 79 106 121 128 126 132 131 127 131 138 136 139 141 140 136 133 130 131 134 129 127 128 127 124 115 114 119 124 124 125 123 96 64 25 348
323 30 316 105 262 279 184 212 214 186 259 234 114 59 49 32 120 121 130 128 126 124 127 139 139 140 139 137 134 135 139 142 141 139 138 141 139 137 129 129 132 136 149 157 160 148 186 288 317
220 254 293 309 281 270 197 201 225 123 56 45 82 81 63 55 83 125 134 133 129 122 129 135 140 140 139 140 142 145 147 142 143 146 151 152 150 155 151 153 159 166 172 174 179 201 232 259 290
332 47 333 295 302 318 327 50 331 96 73 111 103 89 186 266 102 142 141 138 133 136 138 143 143 143 144 145 148 149 145 149 153 160 164 167 170 175 172 174 183 184 192 201 215 231 253 260 277
239 320 273 288 301 309 316 333 61 59 128 117 132 122 301 351 143 179 146 133 133 136 139 141 145 151 152 152 154 153 154 160 166 171 179 184 189 194 192 194 196 202 209 218 229 237 242 250 253
264 359 293 285 288 299 288 288 117 113 49 75 120 126 257 246 166 177 115 129 134 137 143 144 146 148 151 156 162 162 167 171 180 183 189 200 204 210 205 206 211 210 214 211 219 230 244 250 259
279 329 275 273 279 206 264 302 233 112 119 103 125 106 61 258 174 166 131 137 133 142 153 152 152 158 166 164 179 175 177 183 190 193 205 207 210 220 209 209 214 211 215 213 218 224 238 251 269
198 230 258 267 277 286 317 264 293 90 115 42 106 114 147 223 198 148 163 147 150 154 163 161 161 166 178 179 180 180 185 181 186 197 205 210 212 215 207 207 219 205 209 216 223 233 247 270 277
244 222 257 274 279 297 302 317 330 118 21 188 167 142 171 208 163 159 171 171 164 168 165 171 170 177 180 184 166 177 187 190 198 205 205 212 218 224 199 190 194 184 217 209 220 244 259 264 279
229 246 244 266 281 307 299 311 326 7 199 177 179 147 151 222 168 177 176 175 172 161 172 173 175 182 185 177 168 180 189 191 198 207 201 198 209 187 175 186 188 197 225 201 246 61 37 278 298
268 258 258 266 290 288 307 302 287 313 157 163 173 150 166 200 189 194 176 172 168 154 167 173 174 184 163 162 177 185 196 188 200 201 194 186 196 217 223 180 147 154 157 133 113 155 280 356 350
271 295 296 294 288 287 298 291 295 283 168 176 180 182 175 186 188 180 164 174 162 164 159 156 173 176 153 164 176 193 183 194 178 191 187 174 173 190 202 179 138 150 114 122 97 57 7 330 301
300 288 295 292 263 252 265 311 276 255 279 168 183 190 191 174 182 175 170 175 165 168 158 162 164 166 153 160 167 165 152 146 168 165 177 174 167 160 120 114 117 92 88 75 50 22 342 328 319
312 312 272 265 251 241 168 260 278 279 271 276 195 176 171 180 179 168 160 149 153 155 158 163 167 166 157 161 162 167 157 167 180 190 156 158 161 144 126 113 97 123 106 91 65 346 322 326 321
287 262 268 275 252 190 150 235 249 258 276 231 176 206 174 178 178 169 162 158 158 161 155 166 155 169 156 163 161 169 190 188 200 172 149 153 152 134 128 85 116 104 98 76 90 5 167 295 318
278 291 290 297 326 121 186 228 249 259 262 257 219 208 188 177 185 179 168 166 163 165 160 166 149 165 169 158 159 176 188 217 190 159 156 138 121 125 118 112 134 121 74 351 336 204 270 231 261
259 285 306 318 321 24 306 306 318 319 315 298 303 257 227 185 192 180 169 167 163 170 170 169 159 164 162 171 170 174 198 189 179 105 125 126 129 125 126 118 141 146 140 243 234 229 169 323 357
276 335 325 321 315 357 328 318 308 287 270 258 253 273 245 229 191 175 172 168 175 168 178 178 175 159 170 171 170 160 171 177 125 137 129 125 125 125 137 130 143 119 101 28 57 80 333 304 42
333 329 314 288 301 325 352 326 301 275 245 253 254 234 243 195 146 171 170 172 162 167 175 177 178 169 164 160 163 156 89 82 85 108 110 147 133 133 115 139 151 117 97 90 358 19 84 100 318
295 290 299 307 11 293 15 303 291 277 295 226 236 243 228 204 125 144 135 119 132 132 134 139 137 151 161 148 154 158 144 153 156 143 163 130 131 132 149 184 141 119 102 40 113 167 143 105 315
236 293 303 318 344 10 296 337 286 303 311 236 239 241 112 114 118 125 129 134 134 123 131 145 140 131 140 135 137 150 139 158 139 146 135 135 129 147 173 134 117 108 105 174 276 360 69 55 117
296 286 322 346 38 316 266 179 288 277 244 57 74 66 75 126 136 134 128 123 132 140 127 125 128 126 135 149 143 161 156 129 130 134 130 140 154 156 141 126 125 137 165 164 168 128 72 173 257
320 54 333 336 7 245 301 288 236 272 298 121 141 168 159 141 156 159 154 153 155 157 144 137 138 144 142 150 137 161 175 140 145 151 147 161 169 178 173 133 133 129 158 188 184 200 226 257 235
263 160 162 256 283 287 334 296 301 276 20 64 100 134 154 161 142 133 133 155 164 146 142 142 122 105 75 67 122 125 107 122 144 159 163 173 159 157 141 141 159 181 208 219 211 205 240 242 242
282 294 227 196 293 3 271 304 57 21 27 8 14 3 32 206 127 150 149 140 150 158 151 129 122 113 106 110 103 114 117 125 145 115 97 95 106 124 152 163 168 201 218 217 217 219 245 257 247
167 229 356 348 270 277 306 311 248 14 356 3 358 349 9 67 102 124 135 151 161 147 131 131 142 141 144 129 133 143 87 92 93 97 91 106 119 111 151 168 201 223 230 229 224 233 246 249 260
350 252 265 148 159 178 261 276 211 18 10 336 33 278 326 132 154 154 128 130 123 114 135 139 135 130 134 131 145 122 103 96 98 103 109 113 107 136 172 216 229 233 235 240 237 239 245 259 271
290 263 188 138 269 234 179 270 287 17 92 56 32 356 337 10 231 145 152 151 133 135 139 137 138 140 150 145 126 125 115 120 121 133 137 136 167 202 234 249 248 261 264 260 247 246 258 261 273